Regional Weather Roundup
Issued by NWS

Home | Current Version | Previous Version | Graphics & Text | Print | Product List | Glossary On
Versions: 1 2 3 4 5 6 7 8 9 10 11 12 13 14 15 16 17 18 19 20 21 22 23 24 25 26 27 28 29 30 31 32 33 34 35 36 37 38 39 40 41 42 43 44 45 46 47 48 49 50
000
ASUS45 KBOI 200310
RWRID
WEATHER ROUNDUP FOR IDAHO
NATIONAL WEATHER SERVICE BOISE ID
900 PM MDT FRI SEP 19 2014

NOTE: "FAIR" INDICATES FEW OR NO CLOUDS BELOW 12000 FEET
WITH NO SIGNIFICANT WEATHER AND/OR OBSTRUCTIONS TO VISIBILITY

IDZ012-014-200400-
SOUTHWEST IDAHO


CITY           SKY/WX    TMP DP  RH WIND       PRES   REMARKS
BOISE          CLEAR     70  45  40 NW5       30.02R
CALDWELL       CLEAR     70  46  43 SW5       30.03R
MOUNTAIN HOME  CLEAR     67  42  41 W9        30.02R
$$

IDZ016-017-200400-
SOUTHCENTRAL IDAHO


CITY           SKY/WX    TMP DP  RH WIND       PRES   REMARKS
BURLEY         CLEAR     57  46  66 SW7       30.07R
JEROME         CLEAR     66  43  43 SW6       30.08R
TWIN FALLS     CLEAR     64  43  46 SW8       30.09R
$$

IDZ019>023-200400-
SOUTHEAST IDAHO


CITY           SKY/WX    TMP DP  RH WIND       PRES   REMARKS
IDAHO FALLS    CLEAR     68  43  40 S10       30.10R
POCATELLO      CLEAR     59  43  55 S6        30.11R
REXBURG        CLEAR     65  42  43 S10       30.10R
$$

IDZ006-010-011-018-031-032-200400-
CENTRAL IDAHO MOUNTAINS


CITY           SKY/WX    TMP DP  RH WIND       PRES   REMARKS
MCCALL         MOCLDY    66  43  43 N8        30.13R
HAILEY         CLEAR     64  45  48 SE9       30.13R
STANLEY          N/A     54  36  50 S6        30.21R
SALMON         CLEAR     66  43  42 N15       30.06R
CHALLIS        PTCLDY    63  41  44 NW8       30.09R
$$

IDZ002-004-006-007-026-200400-
NORTHERN IDAHO


CITY           SKY/WX    TMP DP  RH WIND       PRES   REMARKS
LEWISTON       CLEAR     74  48  39 SE3       30.02R
LOWELL           N/A     62  53  72 CALM      30.06R
COEUR D`ALENE  PTCLDY    64  46  52 SE7       30.05R
MULLAN PASS    PTCLDY    50  42  74 CALM      30.21R
$$


USA.gov is the U.S. government's official web portal to all federal, state and local government web resources and services.